Precipitable_Water
1.74 1.69 1.66 1.61 1.62 1.62 1.61 1.57 1.56 1.55 1.52 1.54 1.48 1.48 1.49 1.53 1.52 1.55 1.53 1.54 1.51 1.51 1.52 1.54 1.55 1.54 1.55 1.56 1.58 1.58 1.62 1.61 1.67 1.69 1.60 1.59 1.58 1.52 1.50 1.49 1.41 1.40
1.75 1.75 1.73 1.71 1.69 1.68 1.66 1.66 1.61 1.58 1.57 1.55 1.57 1.58 1.52 1.53 1.52 1.49 1.49 1.49 1.49 1.47 1.53 1.53 1.53 1.52 1.54 1.55 1.56 1.56 1.58 1.59 1.51 1.65 1.62 1.58 1.56 1.54 1.47 1.45 1.40 1.42
1.74 1.75 1.74 1.72 1.72 1.71 1.69 1.67 1.66 1.64 1.60 1.60 1.58 1.57 1.60 1.56 1.57 1.51 1.50 1.46 1.46 1.49 1.49 1.52 1.52 1.50 1.51 1.55 1.58 1.58 1.56 1.53 1.51 1.63 1.63 1.58 1.59 1.56 1.50 1.49 1.48 1.45
1.70 1.73 1.76 1.79 1.82 1.82 1.80 1.74 1.70 1.66 1.68 1.64 1.61 1.63 1.60 1.67 1.61 1.56 1.49 1.43 1.48 1.50 1.53 1.54 1.51 1.51 1.47 1.48 1.50 1.52 1.57 1.57 1.60 1.62 1.60 1.58 1.60 1.57 1.56 1.53 1.49 1.45
1.62 1.68 1.73 1.78 1.84 1.87 1.85 1.79 1.73 1.70 1.66 1.69 1.67 1.67 1.64 1.65 1.60 1.59 1.51 1.48 1.49 1.50 1.50 1.51 1.51 1.51 1.51 1.48 1.48 1.47 1.56 1.56 1.60 1.58 1.52 1.50 1.58 1.56 1.55 1.54 1.49 1.43
1.53 1.64 1.69 1.74 1.81 1.82 1.80 1.80 1.76 1.77 1.72 1.70 1.67 1.72 1.68 1.65 1.62 1.60 1.57 1.51 1.51 1.50 1.56 1.55 1.54 1.54 1.54 1.53 1.51 1.52 1.59 1.58 1.65 1.65 1.55 1.54 1.57 1.66 1.66 1.65 1.56 1.47
1.41 1.50 1.58 1.68 1.75 1.80 1.78 1.80 1.81 1.80 1.78 1.77 1.76 1.70 1.73 1.67 1.61 1.63 1.64 1.61 1.63 1.62 1.61 1.64 1.60 1.61 1.64 1.62 1.55 1.52 1.51 1.53 1.64 1.61 1.50 1.53 1.56 1.56 1.60 1.60 1.57 1.50
1.34 1.42 1.47 1.54 1.62 1.73 1.72 1.75 1.78 1.79 1.81 1.79 1.74 1.74 1.71 1.68 1.66 1.67 1.66 1.68 1.67 1.65 1.66 1.67 1.65 1.59 1.66 1.65 1.59 1.56 1.53 1.56 1.50 1.49 1.49 1.47 1.52 1.49 1.52 1.52 1.53 1.48
1.31 1.33 1.35 1.36 1.43 1.56 1.63 1.68 1.73 1.78 1.81 1.74 1.71 1.73 1.71 1.70 1.70 1.69 1.71 1.70 1.70 1.73 1.70 1.68 1.68 1.64 1.64 1.68 1.66 1.62 1.57 1.59 1.65 1.62 1.54 1.50 1.49 1.46 1.47 1.54 1.48 1.44
1.28 1.28 1.28 1.25 1.25 1.36 1.48 1.58 1.68 1.71 1.74 1.72 1.70 1.74 1.74 1.70 1.72 1.73 1.73 1.70 1.68 1.70 1.69 1.69 1.70 1.66 1.68 1.67 1.65 1.64 1.60 1.59 1.58 1.59 1.58 1.54 1.52 1.52 1.55 1.54 1.47 1.41
1.32 1.29 1.25 1.24 1.20 1.23 1.30 1.42 1.53 1.63 1.68 1.61 1.64 1.67 1.76 1.77 1.71 1.73 1.73 1.69 1.66 1.67 1.69 1.69 1.69 1.69 1.68 1.69 1.71 1.71 1.66 1.64 1.65 1.63 1.61 1.58 1.56 1.58 1.55 1.51 1.48 1.43
1.31 1.33 1.31 1.28 1.26 1.25 1.27 1.31 1.37 1.43 1.50 1.53 1.53 1.60 1.71 1.77 1.78 1.72 1.69 1.67 1.65 1.70 1.72 1.74 1.74 1.74 1.70 1.67 1.68 1.70 1.67 1.65 1.67 1.64 1.64 1.63 1.61 1.59 1.57 1.55 1.54 1.56
1.28 1.31 1.33 1.35 1.35 1.33 1.34 1.35 1.36 1.37 1.38 1.41 1.46 1.47 1.56 1.65 1.72 1.74 1.75 1.68 1.66 1.67 1.69 1.71 1.71 1.71 1.71 1.66 1.63 1.65 1.66 1.62 1.62 1.62 1.60 1.59 1.60 1.56 1.57 1.58 1.59 1.59
1.36 1.37 1.38 1.39 1.42 1.43 1.39 1.41 1.42 1.41 1.41 1.41 1.44 1.44 1.43 1.49 1.58 1.66 1.69 1.66 1.66 1.66 1.67 1.69 1.69 1.68 1.70 1.68 1.66 1.64 1.61 1.58 1.56 1.54 1.55 1.59 1.60 1.59 1.58 1.58 1.58 1.56
1.55 1.50 1.48 1.48 1.46 1.46 1.46 1.42 1.42 1.46 1.48 1.48 1.46 1.45 1.47 1.46 1.48 1.55 1.63 1.64 1.62 1.60 1.61 1.65 1.64 1.64 1.65 1.67 1.65 1.61 1.58 1.58 1.58 1.56 1.53 1.52 1.53 1.55 1.58 1.59 1.55 1.53
1.76 1.66 1.59 1.58 1.54 1.50 1.48 1.45 1.43 1.43 1.46 1.47 1.48 1.49 1.50 1.51 1.51 1.53 1.55 1.58 1.59 1.58 1.58 1.57 1.59 1.62 1.63 1.60 1.60 1.62 1.61 1.58 1.57 1.55 1.54 1.52 1.49 1.47 1.47 1.48 1.50 1.50
1.93 1.82 1.76 1.64 1.61 1.59 1.59 1.56 1.54 1.51 1.46 1.45 1.46 1.48 1.49 1.51 1.49 1.48 1.46 1.48 1.50 1.51 1.51 1.50 1.54 1.66 1.68 1.57 1.50 1.46 1.46 1.46 1.45 1.46 1.47 1.46 1.42 1.39 1.36 1.39 1.41 1.43
1.93 1.94 1.92 1.85 1.77 1.68 1.64 1.61 1.64 1.62 1.57 1.52 1.48 1.45 1.46 1.46 1.46 1.44 1.45 1.45 1.46 1.45 1.43 1.47 1.56 1.52 1.52 1.48 1.46 1.45 1.45 1.44 1.44 1.43 1.44 1.44 1.43 1.41 1.42 1.41 1.41 1.42
1.98 1.95 1.92 1.94 1.95 1.91 1.87 1.80 1.72 1.69 1.65 1.59 1.53 1.57 1.54 1.46 1.41 1.39 1.39 1.39 1.39 1.42 1.43 1.52 1.51 1.46 1.41 1.39 1.37 1.39 1.40 1.41 1.41 1.41 1.40 1.40 1.43 1.44 1.43 1.46 1.48 1.44
2.00 1.97 1.93 1.94 1.98 2.01 2.06 2.03 1.92 1.82 1.76 1.68 1.62 1.62 1.58 1.53 1.46 1.38 1.37 1.38 1.42 1.43 1.48 1.46 1.44 1.44 1.40 1.36 1.35 1.34 1.35 1.36 1.38 1.39 1.37 1.38 1.41 1.43 1.41 1.43 1.45 1.44
2.05 2.03 2.01 2.01 2.02 2.03 2.05 2.06 2.03 2.00 1.94 1.86 1.69 1.56 1.54 1.55 1.54 1.44 1.43 1.46 1.50 1.53 1.49 1.39 1.38 1.40 1.39 1.38 1.36 1.36 1.34 1.33 1.37 1.38 1.37 1.39 1.42 1.42 1.41 1.38 1.42 1.42
2.07 2.07 2.07 2.09 2.09 2.09 2.05 2.03 2.04 2.03 2.02 2.10 2.00 1.73 1.70 1.75 1.67 1.58 1.52 1.55 1.60 1.59 1.51 1.36 1.37 1.41 1.41 1.41 1.41 1.39 1.37 1.34 1.38 1.34 1.34 1.37 1.40 1.42 1.41 1.40 1.40 1.40
2.07 2.05 2.05 2.07 2.09 2.10 2.07 2.07 2.08 2.09 2.10 2.14 2.06 1.93 1.83 1.83 1.85 1.85 1.79 1.70 1.66 1.61 1.52 1.41 1.41 1.46 1.49 1.50 1.49 1.49 1.47 1.46 1.47 1.43 1.40 1.37 1.39 1.47 1.45 1.43 1.46 1.48
2.05 2.03 2.01 2.02 2.00 1.99 2.00 2.05 2.10 2.15 2.12 2.18 2.09 1.99 1.91 1.92 1.96 1.98 2.00 1.97 1.87 1.74 1.65 1.52 1.51 1.53 1.57 1.60 1.60 1.60 1.59 1.59 1.64 1.62 1.58 1.54 1.54 1.56 1.58 1.61 1.66 1.65
1.96 1.96 1.95 1.95 1.98 1.98 1.97 1.97 2.03 2.07 2.16 2.19 2.12 2.05 1.98 2.00 2.00 1.99 2.02 2.03 1.97 1.92 1.86 1.75 1.68 1.66 1.64 1.63 1.65 1.70 1.73 1.77 1.77 1.75 1.67 1.76 1.73 1.73 1.77 1.79 1.82 1.81
1.92 1.90 1.94 1.94 1.94 1.98 2.01 2.04 2.06 2.04 2.06 2.07 2.05 2.01 1.98 2.00 2.02 2.02 2.00 2.02 2.04 2.02 2.00 1.95 1.86 1.80 1.78 1.74 1.73 1.77 1.84 1.87 1.89 1.90 1.86 1.86 1.86 1.84 1.85 1.90 1.96 1.95
Wind_Speed
11 11 11 10 10 10 9 9 9 9 9 9 8 8 8 8 8 8 8 8 8 8 8 8 8 8 8 8 8 7 7 7 6 6 5 5 5 4 4 4 4 5
12 11 11 11 10 10 10 9 9 9 9 9 9 8 8 8 8 9 8 8 8 8 8 8 8 8 8 8 8 7 7 7 7 6 6 6 5 5 5 5 5 5
12 12 12 11 11 10 10 10 9 9 9 9 9 9 9 9 9 9 9 9 9 9 8 8 8 8 8 8 8 8 7 7 7 7 7 6 6 6 5 5 5 5
13 13 12 12 11 11 10 10 10 10 9 9 9 9 9 9 9 9 9 9 9 9 9 9 8 8 8 8 8 8 8 8 8 8 7 7 7 7 6 6 6 6
14 14 13 13 12 11 11 11 10 10 10 10 9 10 9 9 9 9 9 9 9 9 9 9 9 9 9 9 8 8 8 8 8 8 8 8 7 7 7 7 7 7
15 15 14 14 13 13 12 11 11 11 10 10 10 10 10 10 10 10 9 9 9 9 9 9 9 9 9 9 9 8 8 8 8 8 8 8 8 8 7 7 7 8
16 16 16 15 14 14 13 12 12 12 11 11 11 10 10 10 10 10 10 10 10 10 9 9 9 9 9 9 9 9 8 8 8 8 8 8 8 8 8 8 8 8
16 16 16 16 16 15 14 14 13 13 12 12 11 11 11 11 11 11 11 10 10 10 10 10 10 10 9 9 9 9 9 8 8 8 8 8 8 9 9 9 9 9
17 17 17 17 17 16 16 15 15 14 14 13 13 12 12 12 12 11 11 11 11 11 11 10 10 10 10 10 9 9 9 9 9 9 9 9 9 9 9 9 9 9
18 17 18 18 18 17 17 16 16 15 15 14 14 13 13 13 13 12 12 12 12 12 11 11 11 10 10 10 10 10 9 9 9 9 9 9 9 9 9 9 9 9
18 18 18 18 18 18 18 17 17 16 16 15 15 15 14 14 14 13 13 13 13 12 12 12 12 11 11 11 10 10 10 10 9 9 9 9 9 9 9 9 10 10
20 19 19 19 19 19 18 18 18 18 17 17 16 16 15 15 15 14 14 14 14 13 13 13 13 12 12 12 11 11 11 11 10 10 10 10 10 10 10 10 10 10
21 20 20 19 19 19 19 19 19 19 18 18 18 17 17 17 16 16 15 15 15 15 14 14 14 14 13 13 13 12 12 12 12 11 11 11 11 11 11 11 11 11
21 21 21 21 20 20 20 20 19 19 19 19 19 18 19 18 18 17 17 16 16 16 15 15 15 15 15 14 14 14 13 13 13 12 12 12 12 12 11 11 12 12
22 21 21 21 21 21 21 21 21 20 20 20 19 19 19 19 19 19 18 18 17 17 17 16 16 16 16 15 15 14 14 14 14 14 13 13 13 13 12 12 12 12
22 21 21 22 22 22 22 21 21 21 21 21 21 20 20 20 20 20 19 19 18 18 18 18 17 17 16 16 16 15 15 15 15 15 14 14 14 14 13 13 13 13
23 22 22 22 22 22 22 22 22 22 22 22 22 21 21 21 21 21 20 20 19 19 19 19 18 17 17 17 17 17 17 16 16 16 16 15 15 15 15 15 14 14
25 24 23 23 23 23 22 23 23 23 23 23 22 22 22 22 22 21 21 21 20 20 20 19 19 19 18 18 18 18 18 18 17 17 17 17 16 16 16 16 15 15
27 27 26 25 24 24 23 24 24 23 23 23 23 22 22 22 22 22 22 22 21 21 20 20 19 20 20 19 19 19 20 19 19 19 18 18 18 18 17 17 17 16
28 28 28 28 27 26 25 25 24 24 24 24 24 23 23 23 23 23 23 22 22 22 21 20 20 20 20 20 20 20 20 20 20 20 20 19 19 19 19 18 18 18
28 28 28 28 28 28 28 27 26 25 25 25 25 25 24 24 24 24 23 23 22 22 21 21 21 20 20 20 20 20 20 20 20 20 20 20 20 20 20 19 19 19
27 26 26 26 27 28 28 28 28 28 27 26 26 25 25 25 24 24 24 23 23 22 22 21 21 21 21 21 21 21 21 21 21 21 21 20 20 20 20 20 20 20
25 25 24 24 24 25 26 26 26 28 28 27 26 26 25 24 24 23 23 23 23 23 22 22 21 21 21 21 21 21 21 21 21 21 21 21 21 21 20 20 20 20
21 22 22 22 22 23 23 23 24 25 26 26 26 26 26 25 24 23 23 22 22 22 22 22 21 21 21 21 21 22 22 22 22 22 22 21 21 21 20 20 20 19
17 17 18 19 19 19 19 20 20 22 23 23 23 25 26 25 24 24 23 22 22 21 21 20 20 20 20 21 21 21 22 22 22 22 22 21 21 21 21 21 20 19
15 15 15 16 16 15 15 15 16 16 17 18 19 21 23 23 23 23 23 22 22 21 20 20 19 19 19 19 19 20 20 21 21 21 21 21 22 22 22 21 21 21
Wind_Direction
186 186 186 185 185 186 187 187 187 185 185 185 184 184 183 183 183 183 182 181 181 183 183 185 186 187 188 189 190 192 194 194 195 197 199 201 202 203 206 210 214 217
190 190 190 189 189 189 189 190 191 192 191 190 190 188 187 188 188 189 189 188 188 188 190 192 194 196 197 197 198 201 204 205 206 209 210 212 214 213 214 217 220 221
196 194 195 194 194 193 192 193 194 195 196 195 194 192 191 192 193 194 194 194 194 194 195 197 199 201 203 204 205 208 210 211 213 216 220 221 222 223 223 224 225 225
201 200 199 199 199 199 197 197 197 198 199 198 197 196 194 195 197 197 197 198 198 199 200 202 204 205 207 208 210 212 214 217 218 221 225 228 228 229 229 229 230 230
205 204 204 203 204 204 203 202 201 200 201 201 200 201 200 200 201 200 200 201 202 204 206 207 209 210 212 213 215 218 219 221 223 224 227 231 233 234 233 233 233 234
208 208 208 207 207 207 207 206 206 205 204 204 204 206 206 205 205 204 204 204 205 208 209 211 213 214 216 218 219 221 223 224 225 226 228 232 235 237 237 237 238 240
211 211 211 211 210 211 211 211 210 210 209 209 208 209 209 208 208 208 208 209 209 211 212 214 216 217 219 221 222 223 225 226 227 229 231 234 236 238 240 242 243 245
214 214 214 214 214 214 215 214 214 213 213 213 212 212 211 211 211 212 213 213 214 215 215 217 219 220 221 223 224 225 227 229 230 231 233 235 238 240 242 244 246 248
217 217 217 217 217 218 218 217 217 216 216 217 217 216 216 215 215 215 216 218 218 219 220 220 222 223 224 225 227 229 230 232 233 235 236 238 240 242 244 246 248 250
219 219 219 219 219 220 220 220 220 219 220 220 221 221 220 220 220 219 220 222 223 224 224 224 225 226 227 228 230 232 234 236 237 239 240 242 243 245 246 247 249 251
222 222 222 222 222 222 223 223 223 223 223 223 224 224 223 223 224 224 225 226 227 228 228 228 228 229 230 231 233 234 236 238 240 241 243 245 247 248 249 250 251 252
224 224 224 224 224 225 225 225 225 225 226 226 226 226 226 226 227 227 228 229 230 230 231 231 232 233 234 234 235 236 237 239 241 243 244 247 249 250 251 252 253 253
225 225 226 226 226 227 227 228 228 228 228 228 228 228 228 229 229 229 230 231 232 232 233 234 235 236 236 237 238 239 240 241 243 244 246 247 249 251 253 253 253 254
227 228 228 228 228 229 229 230 231 231 231 231 231 230 231 231 231 232 232 232 233 234 235 236 237 238 238 238 239 240 242 243 244 246 248 249 251 252 253 254 255 255
229 230 230 230 230 230 231 232 232 233 233 234 234 233 233 233 234 234 234 235 235 236 236 237 238 238 238 238 239 241 242 245 247 248 250 252 254 255 256 257 257 258
230 231 232 232 232 232 233 233 234 234 235 235 236 236 236 236 235 236 236 237 237 238 238 239 239 240 239 239 240 242 244 246 248 250 251 253 255 257 258 259 259 260
232 232 233 234 234 234 234 235 235 236 236 236 237 237 237 238 237 237 238 238 239 239 239 240 241 242 242 242 242 244 246 247 249 251 253 254 255 257 258 259 260 261
234 234 234 234 235 236 236 236 236 237 237 236 237 237 237 238 239 239 239 239 239 239 240 240 240 243 245 246 247 247 247 248 250 252 253 255 256 257 258 260 261 262
235 236 236 236 237 237 237 237 236 237 237 237 237 238 238 238 239 239 240 240 240 240 240 240 242 245 247 248 249 249 248 248 250 251 253 254 256 257 259 260 261 262
236 237 238 238 239 238 238 238 237 237 238 238 237 238 238 239 239 239 239 240 240 240 241 242 244 247 248 248 248 249 249 249 250 252 253 254 255 256 258 259 261 262
235 236 237 238 238 238 239 238 238 238 239 238 238 237 238 238 237 237 238 239 239 240 241 243 245 247 249 249 249 250 250 250 251 252 254 255 255 256 257 258 260 262
234 235 236 237 237 238 238 238 238 238 238 237 237 237 236 236 235 235 237 238 239 239 241 243 245 248 250 250 250 251 251 251 252 253 254 255 256 257 258 259 260 261
233 233 234 235 236 237 237 237 238 237 236 235 235 235 235 235 234 234 236 238 238 239 241 243 246 248 250 251 252 253 252 252 253 254 255 256 256 258 259 260 260 262
230 231 232 233 234 235 236 237 238 237 235 235 234 233 233 234 235 235 236 237 237 238 241 243 245 247 250 251 252 253 253 252 254 255 256 256 257 257 258 259 260 262
225 227 228 229 229 231 232 234 235 235 234 234 235 233 232 233 235 235 236 237 237 238 241 242 243 246 249 251 252 253 253 252 253 255 255 256 257 257 257 258 259 262
221 222 223 223 223 223 226 228 230 230 229 231 233 233 231 231 233 235 236 237 238 239 240 241 243 245 248 251 252 253 253 252 253 254 255 256 257 258 258 258 260 262